Location: Albany
(42.6526°N, 73.7562°W)
Time: 08:55:37
(UTC+00:00)

NOAA 12 - Pass Details

Date: 19 November 2019
Orbit: 795 x 815 km, 98.5° (Epoch: 07 December)

Event Time Altitude Azimuth Distance (km) Brightness Sun altitude
Rises 22:42:20 0° 165° (SSE) 3,326 7.3 -13.4°
Reaches altitude 10° 22:44:40 10° 166° (SSE) 2,399 6.6 -13.9°
Maximum altitude 22:50:00 88° 258° (WSW) 822 4.1 -14.8°
Drops below altitude 10° 22:55:21 10° 346° (NNW) 2,412 6.6 -15.8°
Sets 22:57:42 0° 347° (NNW) 3,346 7.3 -16.2°
